Location: *
(57.8420°S, 159.8600°W)
Time: 05:18:33
(UTC+00:00)

PSLV R/B - Pass Details

Date: 18 May 2021
Orbit: 503 x 576 km, 97.8° (Epoch: 20 June)

Event Time Altitude Azimuth Distance (km) Brightness Sun altitude
Exits shadow 04:49:14 46° 101° (ESE) 719 3.9 -18.2°
Maximum altitude 04:49:38 48° 80° (E) 696 3.9 -18.3°
Drops below altitude 10° 04:53:18 10° 4° (N) 1,749 6.4 -18.8°
Sets 04:55:25 0° 358° (N) 2,623 7.4 -19.1°
